Location: Borovka
(49.7741°N, 14.5280°E)
Time: 02:09:43
(UTC+00:00)

Cosmos 1943 Rocket - Pass Details

Date: 17 November 2025
Orbit: 812 x 841 km, 71.0° (Epoch: 13 December)

Event Time Altitude Azimuth Distance (km) Brightness Sun altitude
Rises 15:59:40 0° 176° (S) 3,372 5.6 -7.2°
Reaches altitude 10° 16:02:19 10° 167° (SSE) 2,439 4.7 -7.6°
Maximum altitude 16:07:12 32° 106° (ESE) 1,392 2.9 -8.4°
Drops below altitude 10° 16:12:05 10° 45° (NE) 2,437 4.1 -9.1°
Enters shadow 16:12:45 - 42° (NE) 2,660 4.3 -9.2°
